| time (UTC) | temp C | wind direction | speed KPH | gust KPH | rain 1hr cm | rain 24hr cm | rain mn cm | humidity % | barometer mb |
| 20260507233404 | 0 | 69 | 3.2 | 4.8 | 0.00 | 0.00 | 0.00 | 75 | 1021.0 |
| 20260507232904 | 0 | 79 | 1.6 | 4.8 | 0.00 | 0.00 | 0.00 | 75 | 1020.9 |
| 20260507232404 | 0 | 79 | 3.2 | 4.8 | 0.00 | 0.00 | 0.00 | 75 | 1020.8 |
| 20260507231904 | 0 | 65 | 4.8 | 4.8 | 0.00 | 0.00 | 0.00 | 74 | 1020.8 |
| 20260507230903 | 0 | 77 | 1.6 | 3.2 | 0.00 | 0.00 | 0.00 | 73 | 1020.8 |
| 20260507225904 | 0 | 77 | 3.2 | 4.8 | 0.00 | 0.00 | 0.00 | 73 | 1020.7 |
| 20260507225403 | 0 | 77 | 3.2 | 4.8 | 0.00 | 0.00 | 0.00 | 74 | 1020.7 |
| 20260507224903 | 0 | 76 | 3.2 | 4.8 | 0.00 | 0.00 | 0.00 | 74 | 1020.7 |
| 20260507223404 | 0 | 76 | 3.2 | 4.8 | 0.00 | 0.00 | 0.00 | 74 | 1020.6 |
| 20260507222904 | 0 | 76 | 1.6 | 3.2 | 0.00 | 0.00 | 0.00 | 74 | 1020.6 |
| 20260507221903 | 0 | 76 | 1.6 | 4.8 | 0.00 | 0.00 | 0.00 | 74 | 1020.5 |
| 20260507221403 | 0 | 76 | 1.6 | 3.2 | 0.00 | 0.00 | 0.00 | 73 | 1020.4 |
| 20260507220904 | 0 | 76 | 3.2 | 4.8 | 0.00 | 0.00 | 0.00 | 73 | 1020.4 |
| 20260507220404 | 1 | 76 | 1.6 | 4.8 | 0.00 | 0.00 | 0.00 | 73 | 1020.4 |
| 20260507215404 | 1 | 58 | 1.6 | 3.2 | 0.00 | 0.00 | 0.00 | 74 | 1020.4 |
| 20260507214404 | 1 | 44 | 1.6 | 3.2 | 0.00 | 0.00 | 0.00 | 74 | 1020.3 |
| 20260507213904 | 1 | 44 | 0.0 | 0.0 | 0.00 | 0.00 | 0.00 | 73 | 1020.3 |
| 20260507212905 | 1 | 44 | 0.0 | 0.0 | 0.00 | 0.00 | 0.00 | 73 | 1020.2 |
| 20260507212404 | 1 | 44 | 0.0 | 0.0 | 0.00 | 0.00 | 0.00 | 72 | 1020.1 |
| 20260507211905 | 2 | 44 | 0.0 | 0.0 | 0.00 | 0.00 | 0.00 | 71 | 1020.1 |
| 20260507210904 | 2 | 44 | 0.0 | 0.0 | 0.00 | 0.00 | 0.00 | 69 | 1020.0 |
| 20260507210404 | 2 | 44 | 0.0 | 0.0 | 0.00 | 0.00 | 0.00 | 68 | 1019.9 |
| 20260507205404 | 3 | 44 | 1.6 | 4.8 | 0.00 | 0.00 | 0.00 | 68 | 1020.0 |
| 20260507204905 | 3 | 44 | 3.2 | 4.8 | 0.00 | 0.00 | 0.00 | 66 | 1020.0 |
| 20260507204404 | 3 | 44 | 1.6 | 4.8 | 0.00 | 0.00 | 0.00 | 65 | 1019.9 |
| 20260507203904 | 3 | 44 | 1.6 | 3.2 | 0.00 | 0.00 | 0.00 | 63 | 1019.8 |
| 20260507203404 | 3 | 44 | 0.0 | 1.6 | 0.00 | 0.00 | 0.00 | 64 | 1019.8 |
| 20260507202903 | 3 | 44 | 1.6 | 1.6 | 0.00 | 0.00 | 0.00 | 63 | 1019.8 |
| 20260507201904 | 4 | 44 | 0.0 | 0.0 | 0.00 | 0.00 | 0.00 | 62 | 1019.7 |
| 20260507201403 | 4 | 44 | 0.0 | 0.0 | 0.00 | 0.00 | 0.00 | 62 | 1019.6 |
| 20260507200903 | 5 | 44 | 0.0 | 1.6 | 0.00 | 0.00 | 0.00 | 62 | 1019.6 |
| 20260507200405 | 5 | 44 | 0.0 | 4.8 | 0.00 | 0.00 | 0.00 | 61 | 1019.6 |
| 20260507195904 | 5 | 44 | 3.2 | 4.8 | 0.00 | 0.00 | 0.00 | 60 | 1019.5 |
| 20260507194904 | 5 | 44 | 0.0 | 0.0 | 0.00 | 0.00 | 0.00 | 59 | 1019.3 |
| 20260507194404 | 6 | 44 | 1.6 | 3.2 | 0.00 | 0.00 | 0.00 | 57 | 1019.3 |
| 20260507193903 | 6 | 44 | 3.2 | 4.8 | 0.00 | 0.00 | 0.00 | 56 | 1019.3 |
| 20260507193404 | 6 | 44 | 3.2 | 4.8 | 0.00 | 0.00 | 0.00 | 53 | 1019.3 |
| 20260507192404 | 7 | 57 | 1.6 | 3.2 | 0.00 | 0.00 | 0.00 | 51 | 1019.2 |
| 20260507191404 | 8 | 49 | 1.6 | 3.2 | 0.00 | 0.00 | 0.00 | 46 | 1019.1 |
| 20260507190403 | 10 | 49 | 1.6 | 3.2 | 0.00 | 0.00 | 0.00 | 42 | 1018.8 |
| 20260507185904 | 10 | 49 | 1.6 | 4.8 | 0.00 | 0.00 | 0.00 | 38 | 1018.7 |
| 20260507185403 | 10 | 49 | 0.0 | 4.8 | 0.00 | 0.00 | 0.00 | 38 | 1018.7 |
| 20260507184403 | 10 | 49 | 1.6 | 1.6 | 0.00 | 0.00 | 0.00 | 38 | 1018.6 |
| 20260507183904 | 11 | 49 | 0.0 | 3.2 | 0.00 | 0.00 | 0.00 | 38 | 1018.6 |
| 20260507183404 | 11 | 49 | 4.8 | 4.8 | 0.00 | 0.00 | 0.00 | 38 | 1018.5 |
| 20260507182903 | 11 | 57 | 3.2 | 4.8 | 0.00 | 0.00 | 0.00 | 37 | 1018.5 |
| 20260507182404 | 11 | 57 | 3.2 | 4.8 | 0.00 | 0.00 | 0.00 | 37 | 1018.5 |
| 20260507181402 | 12 | 48 | 4.8 | 4.8 | 0.00 | 0.00 | 0.00 | 36 | 1018.5 |
| 20260507180903 | 12 | 51 | 3.2 | 4.8 | 0.00 | 0.00 | 0.00 | 34 | 1018.4 |
| 20260507180403 | 12 | 49 | 4.8 | 8.0 | 0.00 | 0.00 | 0.00 | 33 | 1018.4 |
| 20260507175903 | 12 | 44 | 0.0 | 3.2 | 0.00 | 0.00 | 0.00 | 34 | 1018.4 |
| 20260507175403 | 12 | 44 | 1.6 | 8.0 | 0.00 | 0.00 | 0.00 | 32 | 1018.4 |
| 20260507174904 | 13 | 18 | 1.6 | 4.8 | 0.00 | 0.00 | 0.00 | 32 | 1018.5 |
| 20260507174403 | 13 | 5 | 0.0 | 4.8 | 0.00 | 0.00 | 0.00 | 31 | 1018.4 |
| 20260507173903 | 13 | 33 | 1.6 | 3.2 | 0.00 | 0.00 | 0.00 | 31 | 1018.3 |
| 20260507173402 | 13 | 55 | 0.0 | 8.0 | 0.00 | 0.00 | 0.00 | 30 | 1018.3 |
| 20260507172903 | 13 | 47 | 4.8 | 11.3 | 0.00 | 0.00 | 0.00 | 30 | 1018.2 |
| 20260507172402 | 13 | 42 | 1.6 | 4.8 | 0.00 | 0.00 | 0.00 | 29 | 1018.2 |
| 20260507171903 | 13 | 48 | 4.8 | 12.9 | 0.00 | 0.00 | 0.00 | 29 | 1018.3 |
| 20260507171403 | 13 | 18 | 3.2 | 4.8 | 0.00 | 0.00 | 0.00 | 30 | 1018.2 |
| 20260507170903 | 13 | 8 | 1.6 | 4.8 | 0.00 | 0.00 | 0.00 | 28 | 1018.2 |
| 20260507165903 | 13 | 356 | 4.8 | 11.3 | 0.00 | 0.00 | 0.00 | 28 | 1018.1 |
| 20260507164402 | 13 | 349 | 4.8 | 12.9 | 0.00 | 0.00 | 0.00 | 29 | 1018.1 |
| 20260507163903 | 13 | 4 | 4.8 | 12.9 | 0.00 | 0.00 | 0.00 | 29 | 1018.0 |
| 20260507163403 | 13 | 15 | 4.8 | 9.7 | 0.00 | 0.00 | 0.00 | 30 | 1018.0 |
| 20260507162902 | 14 | 11 | 4.8 | 9.7 | 0.00 | 0.00 | 0.00 | 29 | 1018.1 |
| 20260507162402 | 14 | 12 | 4.8 | 12.9 | 0.00 | 0.00 | 0.00 | 29 | 1018.0 |
| 20260507161403 | 14 | 9 | 1.6 | 4.8 | 0.00 | 0.00 | 0.00 | 32 | 1018.0 |
| 20260507160902 | 14 | 355 | 4.8 | 9.7 | 0.00 | 0.00 | 0.00 | 29 | 1018.0 |
| 20260507160403 | 14 | 0 | 3.2 | 4.8 | 0.00 | 0.00 | 0.00 | 32 | 1018.0 |
| 20260507155903 | 13 | 24 | 4.8 | 8.0 | 0.00 | 0.00 | 0.00 | 30 | 1018.0 |
| 20260507154902 | 13 | 34 | 3.2 | 8.0 | 0.00 | 0.00 | 0.00 | 32 | 1017.9 |
| 20260507154403 | 13 | 13 | 4.8 | 8.0 | 0.00 | 0.00 | 0.00 | 30 | 1017.9 |
| 20260507153902 | 13 | 32 | 4.8 | 9.7 | 0.00 | 0.00 | 0.00 | 28 | 1017.9 |
| 20260507153403 | 13 | 45 | 4.8 | 9.7 | 0.00 | 0.00 | 0.00 | 30 | 1017.9 |
| 20260507152903 | 13 | 47 | 4.8 | 9.7 | 0.00 | 0.00 | 0.00 | 30 | 1017.9 |
| 20260507151902 | 14 | 26 | 6.4 | 14.5 | 0.00 | 0.00 | 0.00 | 30 | 1017.9 |
| 20260507151403 | 15 | 34 | 4.8 | 8.0 | 0.00 | 0.00 | 0.00 | 30 | 1017.8 |
| 20260507150902 | 15 | 334 | 8.0 | 14.5 | 0.00 | 0.00 | 0.00 | 29 | 1017.8 |
| 20260507150402 | 14 | 49 | 1.6 | 11.3 | 0.00 | 0.00 | 0.00 | 33 | 1017.8 |
| 20260507145903 | 14 | 341 | 3.2 | 12.9 | 0.00 | 0.00 | 0.00 | 32 | 1017.7 |
| 20260507145403 | 14 | 55 | 3.2 | 8.0 | 0.00 | 0.00 | 0.00 | 30 | 1017.7 |
| 20260507144903 | 14 | 16 | 6.4 | 11.3 | 0.00 | 0.00 | 0.00 | 31 | 1017.7 |
| 20260507144402 | 14 | 19 | 4.8 | 11.3 | 0.00 | 0.00 | 0.00 | 30 | 1017.8 |
| 20260507143903 | 14 | 337 | 4.8 | 12.9 | 0.00 | 0.00 | 0.00 | 32 | 1017.8 |
| 20260507143403 | 14 | 42 | 4.8 | 9.7 | 0.00 | 0.00 | 0.00 | 32 | 1017.7 |
| 20260507142903 | 14 | 13 | 3.2 | 16.1 | 0.00 | 0.00 | 0.00 | 35 | 1017.8 |
| 20260507141903 | 14 | 353 | 6.4 | 11.3 | 0.00 | 0.00 | 0.00 | 32 | 1017.7 |
| 20260507141402 | 14 | 14 | 3.2 | 8.0 | 0.00 | 0.00 | 0.00 | 34 | 1017.7 |
| 20260507140903 | 13 | 342 | 6.4 | 12.9 | 0.00 | 0.00 | 0.00 | 32 | 1017.6 |
| 20260507140403 | 13 | 55 | 4.8 | 9.7 | 0.00 | 0.00 | 0.00 | 31 | 1017.5 |
| 20260507135903 | 13 | 35 | 3.2 | 8.0 | 0.00 | 0.00 | 0.00 | 32 | 1017.6 |
| 20260507135403 | 13 | 82 | 8.0 | 16.1 | 0.00 | 0.00 | 0.00 | 29 | 1017.7 |
| 20260507134403 | 13 | 2 | 1.6 | 4.8 | 0.00 | 0.00 | 0.00 | 28 | 1017.8 |
| 20260507133903 | 13 | 22 | 3.2 | 8.0 | 0.00 | 0.00 | 0.00 | 29 | 1017.8 |
| 20260507132903 | 13 | 38 | 4.8 | 11.3 | 0.00 | 0.00 | 0.00 | 30 | 1017.8 |
| 20260507131903 | 13 | 334 | 8.0 | 14.5 | 0.00 | 0.00 | 0.00 | 30 | 1018.0 |
| 20260507130903 | 13 | 9 | 4.8 | 14.5 | 0.00 | 0.00 | 0.00 | 33 | 1017.8 |
| 20260507130403 | 13 | 24 | 4.8 | 12.9 | 0.00 | 0.00 | 0.00 | 29 | 1017.9 |
| 20260507125903 | 13 | 32 | 4.8 | 9.7 | 0.00 | 0.00 | 0.00 | 30 | 1017.8 |
| 20260507125403 | 13 | 5 | 4.8 | 11.3 | 0.00 | 0.00 | 0.00 | 30 | 1017.9 |
| 20260507124903 | 13 | 300 | 4.8 | 19.3 | 0.00 | 0.00 | 0.00 | 33 | 1018.0 |
| 20260507124402 | 13 | 44 | 3.2 | 11.3 | 0.00 | 0.00 | 0.00 | 35 | 1017.9 |
| 20260507123903 | 13 | 355 | 8.0 | 16.1 | 0.00 | 0.00 | 0.00 | 32 | 1017.9 |
| 20260507123403 | 13 | 10 | 4.8 | 12.9 | 0.00 | 0.00 | 0.00 | 31 | 1017.8 |
| 20260507122904 | 13 | 49 | 8.0 | 20.9 | 0.00 | 0.00 | 0.00 | 31 | 1017.8 |
| 20260507122403 | 13 | 29 | 4.8 | 9.7 | 0.00 | 0.00 | 0.00 | 30 | 1017.9 |
| 20260507121403 | 13 | 14 | 4.8 | 12.9 | 0.00 | 0.00 | 0.00 | 33 | 1017.9 |
| 20260507120902 | 13 | 330 | 4.8 | 12.9 | 0.00 | 0.00 | 0.00 | 34 | 1017.8 |
| 20260507120403 | 13 | 350 | 8.0 | 16.1 | 0.00 | 0.00 | 0.00 | 34 | 1017.8 |
| 20260507115903 | 13 | 329 | 4.8 | 12.9 | 0.00 | 0.00 | 0.00 | 32 | 1017.8 |
| 20260507115402 | 13 | 349 | 3.2 | 16.1 | 0.00 | 0.00 | 0.00 | 35 | 1017.8 |
| 20260507114903 | 12 | 349 | 6.4 | 14.5 | 0.00 | 0.00 | 0.00 | 32 | 1017.8 |
| 20260507114402 | 13 | 44 | 6.4 | 16.1 | 0.00 | 0.00 | 0.00 | 30 | 1017.8 |
| 20260507113903 | 13 | 344 | 8.0 | 14.5 | 0.00 | 0.00 | 0.00 | 33 | 1017.7 |
| 20260507113403 | 12 | 353 | 6.4 | 16.1 | 0.00 | 0.00 | 0.00 | 30 | 1017.7 |
| 20260507112902 | 12 | 26 | 9.7 | 19.3 | 0.00 | 0.00 | 0.00 | 30 | 1017.7 |
| 20260507112403 | 12 | 320 | 6.4 | 19.3 | 0.00 | 0.00 | 0.00 | 33 | 1017.7 |
| 20260507111904 | 12 | 5 | 8.0 | 19.3 | 0.00 | 0.00 | 0.00 | 31 | 1017.7 |
| 20260507111403 | 12 | 0 | 6.4 | 19.3 | 0.00 | 0.00 | 0.00 | 33 | 1017.6 |
| 20260507110903 | 12 | 353 | 4.8 | 19.3 | 0.00 | 0.00 | 0.00 | 35 | 1017.7 |
| 20260507110403 | 13 | 21 | 8.0 | 14.5 | 0.00 | 0.00 | 0.00 | 36 | 1017.6 |
| 20260507105904 | 13 | 353 | 9.7 | 16.1 | 0.00 | 0.00 | 0.00 | 33 | 1017.6 |
| 20260507105403 | 12 | 353 | 6.4 | 16.1 | 0.00 | 0.00 | 0.00 | 37 | 1017.7 |
| 20260507104403 | 12 | 25 | 8.0 | 14.5 | 0.00 | 0.00 | 0.00 | 34 | 1017.5 |
| 20260507103903 | 12 | 26 | 6.4 | 20.9 | 0.00 | 0.00 | 0.00 | 36 | 1017.4 |
| 20260507102403 | 13 | 347 | 4.8 | 12.9 | 0.00 | 0.00 | 0.00 | 33 | 1017.3 |
| 20260507101903 | 13 | 357 | 8.0 | 16.1 | 0.00 | 0.00 | 0.00 | 32 | 1017.0 |
| 20260507101403 | 13 | 333 | 6.4 | 16.1 | 0.00 | 0.00 | 0.00 | 36 | 1016.9 |
| 20260507100404 | 13 | 282 | 3.2 | 16.1 | 0.00 | 0.00 | 0.00 | 41 | 1016.8 |
| 20260507095903 | 13 | 279 | 4.8 | 14.5 | 0.00 | 0.00 | 0.00 | 40 | 1016.7 |
| 20260507095404 | 12 | 314 | 1.6 | 12.9 | 0.00 | 0.00 | 0.00 | 43 | 1016.6 |
| 20260507094903 | 12 | 288 | 4.8 | 14.5 | 0.00 | 0.00 | 0.00 | 42 | 1016.6 |
| 20260507093903 | 12 | 347 | 4.8 | 11.3 | 0.00 | 0.00 | 0.00 | 41 | 1016.7 |
| 20260507093403 | 12 | 340 | 8.0 | 14.5 | 0.00 | 0.00 | 0.00 | 46 | 1016.5 |
| 20260507092903 | 12 | 268 | 9.7 | 16.1 | 0.00 | 0.00 | 0.00 | 41 | 1016.4 |
| 20260507092403 | 12 | 281 | 3.2 | 9.7 | 0.00 | 0.00 | 0.00 | 40 | 1016.3 |
| 20260507091403 | 12 | 288 | 3.2 | 11.3 | 0.00 | 0.00 | 0.00 | 46 | 1016.3 |
| 20260507090404 | 12 | 293 | 3.2 | 8.0 | 0.00 | 0.00 | 0.00 | 46 | 1016.2 |
| 20260507085903 | 11 | 282 | 3.2 | 12.9 | 0.00 | 0.00 | 0.00 | 45 | 1016.2 |
| 20260507085403 | 11 | 274 | 6.4 | 14.5 | 0.00 | 0.00 | 0.00 | 43 | 1016.2 |
| 20260507084403 | 11 | 274 | 8.0 | 12.9 | 0.00 | 0.00 | 0.00 | 47 | 1016.4 |
| 20260507083903 | 11 | 271 | 4.8 | 9.7 | 0.00 | 0.00 | 0.00 | 51 | 1016.3 |
| 20260507083404 | 11 | 305 | 3.2 | 8.0 | 0.00 | 0.00 | 0.00 | 47 | 1016.2 |
| 20260507082903 | 11 | 234 | 9.7 | 12.9 | 0.00 | 0.00 | 0.00 | 47 | 1016.2 |
| 20260507082403 | 11 | 263 | 8.0 | 12.9 | 0.00 | 0.00 | 0.00 | 48 | 1016.2 |
| 20260507081903 | 11 | 267 | 4.8 | 14.5 | 0.00 | 0.00 | 0.00 | 49 | 1016.2 |
| 20260507081403 | 11 | 274 | 8.0 | 12.9 | 0.00 | 0.00 | 0.00 | 48 | 1016.2 |
| 20260507080903 | 11 | 271 | 3.2 | 11.3 | 0.00 | 0.00 | 0.00 | 51 | 1016.1 |
| 20260507080403 | 10 | 311 | 3.2 | 9.7 | 0.00 | 0.00 | 0.00 | 54 | 1016.1 |
| 20260507075403 | 10 | 282 | 3.2 | 11.3 | 0.00 | 0.00 | 0.00 | 55 | 1016.0 |
| 20260507074903 | 10 | 273 | 3.2 | 12.9 | 0.00 | 0.00 | 0.00 | 56 | 1016.0 |
| 20260507074403 | 10 | 266 | 3.2 | 11.3 | 0.00 | 0.00 | 0.00 | 58 | 1015.9 |
| 20260507073903 | 9 | 249 | 4.8 | 12.9 | 0.00 | 0.00 | 0.00 | 57 | 1015.9 |
| 20260507073404 | 9 | 264 | 4.8 | 12.9 | 0.00 | 0.00 | 0.00 | 58 | 1015.9 |
| 20260507072903 | 9 | 230 | 3.2 | 8.0 | 0.00 | 0.00 | 0.00 | 58 | 1015.9 |
| 20260507072403 | 8 | 249 | 4.8 | 9.7 | 0.00 | 0.00 | 0.00 | 61 | 1015.9 |
| 20260507071904 | 8 | 234 | 4.8 | 9.7 | 0.00 | 0.00 | 0.00 | 61 | 1015.9 |
| 20260507071404 | 8 | 264 | 4.8 | 8.0 | 0.00 | 0.00 | 0.00 | 61 | 1015.9 |
| 20260507070904 | 8 | 274 | 3.2 | 4.8 | 0.00 | 0.00 | 0.00 | 63 | 1015.8 |
| 20260507070403 | 8 | 219 | 6.4 | 12.9 | 0.00 | 0.00 | 0.00 | 62 | 1015.8 |
| 20260507065903 | 7 | 246 | 3.2 | 4.8 | 0.00 | 0.00 | 0.00 | 63 | 1015.9 |
| 20260507065403 | 7 | 275 | 4.8 | 9.7 | 0.00 | 0.00 | 0.00 | 64 | 1015.9 |
| 20260507064403 | 7 | 254 | 6.4 | 12.9 | 0.00 | 0.00 | 0.00 | 65 | 1015.8 |
| 20260507063903 | 7 | 246 | 4.8 | 11.3 | 0.00 | 0.00 | 0.00 | 68 | 1015.7 |
| 20260507063404 | 7 | 257 | 8.0 | 14.5 | 0.00 | 0.00 | 0.00 | 69 | 1015.8 |
| 20260507062904 | 7 | 248 | 4.8 | 9.7 | 0.00 | 0.00 | 0.00 | 70 | 1015.7 |
| 20260507061904 | 6 | 241 | 6.4 | 11.3 | 0.00 | 0.00 | 0.00 | 71 | 1015.7 |
| 20260507061403 | 6 | 250 | 8.0 | 11.3 | 0.00 | 0.00 | 0.00 | 72 | 1015.6 |
| 20260507060903 | 6 | 247 | 8.0 | 12.9 | 0.00 | 0.00 | 0.00 | 73 | 1015.6 |
| 20260507060403 | 5 | 239 | 8.0 | 14.5 | 0.00 | 0.00 | 0.00 | 74 | 1015.6 |
| 20260507055903 | 5 | 226 | 8.0 | 11.3 | 0.00 | 0.00 | 0.00 | 74 | 1015.6 |
| 20260507054903 | 5 | 234 | 8.0 | 11.3 | 0.00 | 0.00 | 0.00 | 75 | 1015.3 |
| 20260507054403 | 5 | 240 | 8.0 | 11.3 | 0.00 | 0.00 | 0.00 | 75 | 1015.3 |
| 20260507053903 | 4 | 234 | 8.0 | 12.9 | 0.00 | 0.00 | 0.00 | 76 | 1015.2 |
| 20260507053403 | 4 | 229 | 8.0 | 11.3 | 0.00 | 0.00 | 0.00 | 75 | 1015.1 |
| 20260507052903 | 4 | 228 | 8.0 | 11.3 | 0.00 | 0.00 | 0.00 | 76 | 1015.2 |
| 20260507052404 | 3 | 224 | 8.0 | 9.7 | 0.00 | 0.00 | 0.00 | 76 | 1015.2 |
| 20260507051904 | 3 | 231 | 8.0 | 11.3 | 0.00 | 0.00 | 0.00 | 77 | 1015.1 |
| 20260507050904 | 3 | 216 | 8.0 | 9.7 | 0.00 | 0.00 | 0.00 | 78 | 1015.0 |
| 20260507050403 | 3 | 214 | 4.8 | 8.0 | 0.00 | 0.00 | 0.00 | 79 | 1015.0 |
| 20260507045904 | 2 | 212 | 8.0 | 8.0 | 0.00 | 0.00 | 0.00 | 79 | 1014.9 |
| 20260507044903 | 2 | 202 | 4.8 | 4.8 | 0.00 | 0.00 | 0.00 | 79 | 1014.8 |
| 20260507044403 | 2 | 212 | 8.0 | 9.7 | 0.00 | 0.00 | 0.00 | 79 | 1014.8 |
| 20260507043904 | 2 | 198 | 3.2 | 4.8 | 0.00 | 0.00 | 0.00 | 79 | 1014.8 |
| 20260507042403 | 1 | 194 | 4.8 | 8.0 | 0.00 | 0.00 | 0.00 | 80 | 1014.8 |
| 20260507041903 | 1 | 197 | 4.8 | 8.0 | 0.00 | 0.00 | 0.00 | 80 | 1014.7 |
| 20260507041403 | 1 | 195 | 4.8 | 8.0 | 0.00 | 0.00 | 0.00 | 80 | 1014.7 |
| 20260507040403 | 1 | 200 | 4.8 | 8.0 | 0.00 | 0.00 | 0.00 | 80 | 1014.6 |
| 20260507035903 | 1 | 194 | 4.8 | 8.0 | 0.00 | 0.00 | 0.00 | 81 | 1014.6 |
| 20260507035404 | 1 | 191 | 4.8 | 8.0 | 0.00 | 0.00 | 0.00 | 81 | 1014.4 |
| 20260507034903 | 0 | 194 | 4.8 | 8.0 | 0.00 | 0.00 | 0.00 | 82 | 1014.4 |
| 20260507033403 | 0 | 183 | 1.6 | 4.8 | 0.00 | 0.00 | 0.00 | 82 | 1014.3 |
| 20260507032903 | 0 | 172 | 1.6 | 4.8 | 0.00 | 0.00 | 0.00 | 82 | 1014.2 |
| 20260507032403 | 0 | 175 | 1.6 | 3.2 | 0.00 | 0.00 | 0.00 | 82 | 1014.2 |
| 20260507031903 | 0 | 180 | 0.0 | 3.2 | 0.00 | 0.00 | 0.00 | 81 | 1014.3 |
| 20260507031403 | 0 | 180 | 1.6 | 3.2 | 0.00 | 0.00 | 0.00 | 81 | 1014.2 |
| 20260507030903 | 0 | 180 | 0.0 | 3.2 | 0.00 | 0.00 | 0.00 | 81 | 1014.1 |
| 20260507025905 | 0 | 180 | 0.0 | 0.0 | 0.00 | 0.00 | 0.00 | 80 | 1014.1 |
| 20260507024403 | 0 | 180 | 0.0 | 0.0 | 0.00 | 0.00 | 0.00 | 79 | 1014.0 |
| 20260507023904 | 0 | 180 | 1.6 | 3.2 | 0.00 | 0.00 | 0.00 | 79 | 1014.0 |
| 20260507023403 | 0 | 189 | 0.0 | 1.6 | 0.00 | 0.00 | 0.00 | 78 | 1014.0 |
| 20260507022904 | 1 | 189 | 0.0 | 1.6 | 0.00 | 0.00 | 0.00 | 78 | 1013.9 |
| 20260507022404 | 1 | 189 | 0.0 | 0.0 | 0.00 | 0.00 | 0.00 | 78 | 1013.9 |
| 20260507021904 | 1 | 189 | 0.0 | 1.6 | 0.00 | 0.00 | 0.00 | 78 | 1013.9 |
| 20260507021404 | 1 | 189 | 3.2 | 4.8 | 0.00 | 0.00 | 0.00 | 79 | 1013.9 |
| 20260507020903 | 1 | 204 | 3.2 | 8.0 | 0.00 | 0.00 | 0.00 | 79 | 1013.9 |
| 20260507020403 | 1 | 207 | 4.8 | 4.8 | 0.00 | 0.00 | 0.00 | 79 | 1013.9 |
| 20260507015404 | 1 | 198 | 4.8 | 8.0 | 0.00 | 0.00 | 0.00 | 80 | 1013.9 |
| 20260507014903 | 1 | 196 | 4.8 | 9.7 | 0.00 | 0.00 | 0.00 | 80 | 1013.8 |
| 20260507014403 | 1 | 202 | 6.4 | 8.0 | 0.00 | 0.00 | 0.00 | 82 | 1013.8 |
| 20260507013903 | 0 | 209 | 3.2 | 4.8 | 0.00 | 0.00 | 0.00 | 82 | 1013.7 |
| 20260507013403 | 0 | 218 | 3.2 | 4.8 | 0.00 | 0.00 | 0.00 | 81 | 1013.8 |
| 20260507012903 | 0 | 225 | 3.2 | 4.8 | 0.00 | 0.00 | 0.00 | 80 | 1013.7 |
| 20260507012404 | 0 | 219 | 3.2 | 4.8 | 0.00 | 0.00 | 0.00 | 80 | 1013.6 |
| 20260507011904 | 0 | 219 | 4.8 | 4.8 | 0.00 | 0.00 | 0.00 | 79 | 1013.6 |
| 20260507011403 | 1 | 222 | 3.2 | 4.8 | 0.00 | 0.00 | 0.00 | 78 | 1013.5 |
| 20260507010904 | 1 | 222 | 4.8 | 8.0 | 0.00 | 0.00 | 0.00 | 77 | 1013.5 |
| 20260507010404 | 1 | 221 | 4.8 | 8.0 | 0.00 | 0.00 | 0.00 | 77 | 1013.5 |
| 20260507005904 | 1 | 223 | 4.8 | 4.8 | 0.00 | 0.00 | 0.00 | 76 | 1013.3 |
| 20260507004903 | 1 | 218 | 4.8 | 4.8 | 0.00 | 0.00 | 0.00 | 76 | 1013.2 |
| 20260507004404 | 2 | 211 | 6.4 | 9.7 | 0.00 | 0.00 | 0.00 | 75 | 1013.1 |
| 20260507003903 | 2 | 217 | 4.8 | 4.8 | 0.00 | 0.00 | 0.00 | 75 | 1013.1 |
| 20260507003403 | 2 | 211 | 4.8 | 8.0 | 0.00 | 0.00 | 0.00 | 75 | 1013.2 |
| 20260507002403 | 2 | 201 | 4.8 | 4.8 | 0.00 | 0.00 | 0.00 | 76 | 1013.2 |
| 20260507001903 | 1 | 187 | 3.2 | 4.8 | 0.00 | 0.00 | 0.00 | 77 | 1013.2 |
| 20260507001404 | 1 | 120 | 1.6 | 3.2 | 0.00 | 0.00 | 0.00 | 77 | 1013.2 |
| 20260507000904 | 0 | 96 | 0.0 | 0.0 | 0.00 | 0.00 | 0.00 | 78 | 1013.1 |
| 20260507000405 | 0 | 96 | 0.0 | 1.6 | 0.00 | 0.00 | 0.00 | 77 | 1013.1 |
| 20260506235904 | 0 | 96 | 0.0 | 3.2 | 0.00 | 0.00 | 0.00 | 77 | 1013.0 |
| 20260506235403 | 0 | 96 | 1.6 | 3.2 | 0.00 | 0.00 | 0.00 | 77 | 1013.0 |
| 20260506234904 | 0 | 96 | 3.2 | 4.8 | 0.00 | 0.00 | 0.00 | 76 | 1012.9 |
| 20260506234403 | 0 | 75 | 1.6 | 3.2 | 0.00 | 0.00 | 0.00 | 76 | 1012.9 |
| 20260506233904 | 0 | 72 | 1.6 | 3.2 | 0.00 | 0.00 | 0.00 | 76 | 1012.8 |